Regional Weather Roundup
Issued by NWS State College, PA

Home | Current Version | Previous Version | Text Only | Print | Product List | Glossary On
Versions: 1 2 3 4 5 6 7 8 9 10 11 12 13 14 15 16 17 18 19 20 21 22 23 24 25 26 27 28 29 30 31 32 33 34 35 36 37 38 39 40 41 42 43 44 45 46 47 48 49 50
000
ASUS41 KCTP 220410
RWRCTP

REGIONAL WEATHER ROUNDUP
NATIONAL WEATHER SERVICE STATE COLLEGE PA
1200 AM EDT TUE MAY 22 2018

Note: "fair" indicates few or no clouds below 12,000 feet with no
significant weather and/or obstructions to visibility.

* = STATION THAT DOES NOT REPORT PRECIPITATION /E.G. RAIN...SNOW...ETC/
    THUNDER OR FOG.

PAZ002>004-007>009-013>016-020>023-029>032-220500-
WESTERN PENNSYLVANIA

CITY           SKY/WX    TMP DP  RH WIND       PRES   REMARKS
ERIE           LGT RAIN  60  54  80 NE3       30.07F
MEADVILLE      LGT RAIN  62  57  83 E7        30.07F
FRANKLIN*      LGT RAIN  62  58  86 N5        30.10F
NEW CASTLE     LGT RAIN  67  63  87 SW3       30.07F
BEAVER COUNTY  NOT AVBL
BUTLER*        FAIR      69  60  73 S3        30.08S
PITTSBURGH INT CLOUDY    72  61  68 SW6       30.07S
PITTSBURGH     FAIR      70  64  81 S10       30.08R
INDIANA*       MOCLDY    70  63  78 S6        30.14S
LATROBE        FAIR      72  64  78 S9G16     30.11R
WASHINGTON CO* FAIR      70  62  76 S6        30.12S
$$

PAZ004>006-010>012-017>019-024>028-033>037-041-042-045-046-049>053-220500-
CENTRAL PENNSYLVANIA

CITY           SKY/WX    TMP DP  RH WIND       PRES   REMARKS
BRADFORD       LGT RAIN  60  52  74 E3        30.15S
DUBOIS         MOCLDY    65  54  67 SE9       30.11F
CLEARFIELD     MOCLDY    64  51  62 NE5       30.14F
JOHNSTOWN      MOCLDY    66  61  84 S10       30.14S
ALTOONA        CLOUDY    70  60  70 CALM      30.14F
STATE COLLEGE  CLOUDY    67  53  60 CALM      30.14S
WILLIAMSPORT   FAIR      61  55  81 CALM      30.12F
SELINSGROVE    FAIR      57  53  86 CALM      30.14F
FT INDIANTOWN  FAIR      62  60  96 CALM      30.15S
CAPITAL CITY   MOCLDY    72  57  59 SE6       30.13F
HARRISBURG     MOCLDY    66  58  75 E5        30.13F
YORK           CLOUDY    69  60  73 S3        30.14F
$$

PAZ038>040-043-044-047-048-054-055-060>062-067>071-220500-
EASTERN PENNSYLVANIA

CITY           SKY/WX    TMP DP  RH WIND       PRES   REMARKS
SCRANTON       FAIR      59  48  67 E7        30.15S
MOUNT POCONO   FAIR      56  50  80 W5        30.19S
ALLENTOWN      FAIR      67  53  61 SW7       30.15S
QUAKERTOWN*    CLEAR     63  57  82 CALM      30.17S
READING        FAIR      65  58  78 S6        30.14S
LANCASTER      FAIR      67  59  75 S5        30.16R
COATESVILLE    FAIR      61  54  77 CALM      30.19S
POTTSTOWN      FAIR      61  54  77 CALM      30.18S
BLUE BELL      FAIR      61  52  72 CALM      30.18F
DOYLESTOWN     FAIR      60  53  77 S3        30.16S
WILLOW GROVE   NOT AVBL
NORTH PHILA    FAIR      65  50  58 S3        30.18S
PHILADELPHIA   FAIR      63  52  67 S5        30.17F
$$




USA.gov is the U.S. government's official web portal to all federal, state and local government web resources and services.